Time,TemperatureF,DewpointF,PressureIn,WindDirection,WindDirectionDegrees,WindSpeedMPH,WindSpeedGustMPH,Humidity,HourlyPrecipIn,Conditions,Clouds,dailyrainin,SoftwareType,DateUTC
2013-01-08 00:00:00,14.2,9.7,27.47,South,189,2.0,5.0,82,0.00,,,-99.99,Weather View 32 v60,2013-01-08 05:00:00,
2013-01-08 00:20:00,16.5,12.8,27.46,SE,125,0.0,5.0,85,0.00,,,-99.99,Weather View 32 v60,2013-01-08 05:20:00,
2013-01-08 00:40:00,15.1,11.1,27.47,ENE,70,2.0,5.0,84,0.00,,,-99.99,Weather View 32 v60,2013-01-08 05:40:00,
2013-01-08 01:00:00,14.3,10.4,27.48,ENE,75,3.0,4.0,84,0.00,,,-99.99,Weather View 32 v60,2013-01-08 06:00:00,
2013-01-08 01:40:00,17.8,13.5,27.49,NW,321,0.0,4.0,83,0.00,,,-99.99,Weather View 32 v60,2013-01-08 06:40:00,
2013-01-08 02:00:00,16.6,11.8,27.49,North,2,0.0,4.0,81,0.00,,,-99.99,Weather View 32 v60,2013-01-08 07:00:00,
2013-01-08 02:40:00,17.0,12.2,27.48,North,0,0.0,4.0,81,0.00,,,-99.99,Weather View 32 v60,2013-01-08 07:40:00,
2013-01-08 03:00:00,16.0,11.8,27.48,North,3,3.0,4.0,83,0.00,,,-99.99,Weather View 32 v60,2013-01-08 08:00:00,
2013-01-08 03:20:00,16.1,11.9,27.48,North,5,1.0,4.0,83,0.00,,,-99.99,Weather View 32 v60,2013-01-08 08:20:00,
2013-01-08 03:40:00,15.9,11.4,27.48,North,6,0.0,3.0,82,0.00,,,-99.99,Weather View 32 v60,2013-01-08 08:40:00,
2013-01-08 04:00:00,15.6,11.1,27.47,North,6,1.0,4.0,82,0.00,,,-99.99,Weather View 32 v60,2013-01-08 09:00:00,
2013-01-08 04:40:00,18.1,13.8,27.49,ESE,121,0.0,4.0,83,0.00,,,-99.99,Weather View 32 v60,2013-01-08 09:40:00,
2013-01-08 05:00:00,17.4,11.1,27.50,East,79,0.0,4.0,76,0.00,,,-99.99,Weather View 32 v60,2013-01-08 10:00:00,
2013-01-08 05:40:00,22.8,15.1,27.51,NNW,327,1.0,7.0,72,0.00,,,-99.99,Weather View 32 v60,2013-01-08 10:40:00,
2013-01-08 06:00:00,25.5,15.4,27.52,NW,326,2.0,9.0,65,0.00,,,-99.99,Weather View 32 v60,2013-01-08 11:00:00,
2013-01-08 06:20:00,27.6,15.5,27.52,NNW,347,4.0,9.0,60,0.00,,,-99.99,Weather View 32 v60,2013-01-08 11:20:00,
2013-01-08 06:40:00,28.6,16.1,27.53,WNW,291,2.0,9.0,59,0.00,,,-99.99,Weather View 32 v60,2013-01-08 11:40:00,
2013-01-08 07:00:00,30.2,17.2,27.53,NW,307,2.0,10.0,58,0.00,,,-99.99,Weather View 32 v60,2013-01-08 12:00:00,
2013-01-08 07:40:00,34.6,18.8,27.54,WNW,294,2.0,10.0,52,0.00,,,-99.99,Weather View 32 v60,2013-01-08 12:40:00,
2013-01-08 08:00:00,35.2,19.3,27.54,West,281,1.0,10.0,52,0.00,,,-99.99,Weather View 32 v60,2013-01-08 13:00:00,
2013-01-08 08:40:00,37.3,21.3,27.55,WNW,289,5.0,8.0,52,0.00,,,-99.99,Weather View 32 v60,2013-01-08 13:40:00,
2013-01-08 09:00:00,38.5,21.0,27.56,WSW,249,5.0,10.0,49,0.00,,,-99.99,Weather View 32 v60,2013-01-08 14:00:00,
2013-01-08 09:40:00,40.6,21.4,27.55,WSW,254,5.0,10.0,46,0.00,,,-99.99,Weather View 32 v60,2013-01-08 14:40:00,
2013-01-08 10:00:00,41.7,22.4,27.55,WSW,238,3.0,10.0,46,0.00,,,-99.99,Weather View 32 v60,2013-01-08 15:00:00,
2013-01-08 10:40:00,42.3,24.5,27.54,SW,235,8.0,16.0,49,0.00,,,-99.99,Weather View 32 v60,2013-01-08 15:40:00,
2013-01-08 11:00:00,42.3,24.5,27.54,WNW,300,8.0,16.0,49,0.00,,,-99.99,Weather View 32 v60,2013-01-08 16:00:00,
2013-01-08 11:40:00,45.0,25.4,27.53,WNW,290,10.0,16.0,46,0.00,,,-99.99,Weather View 32 v60,2013-01-08 16:40:00,
2013-01-08 12:00:00,46.1,24.8,27.53,WNW,292,6.0,16.0,43,0.00,,,-99.99,Weather View 32 v60,2013-01-08 17:00:00,
2013-01-08 12:40:00,45.9,25.2,27.52,WNW,289,7.0,18.0,44,0.00,,,-99.99,Weather View 32 v60,2013-01-08 17:40:00,
2013-01-08 13:00:00,44.1,25.1,27.53,WNW,302,14.0,18.0,47,0.00,,,-99.99,Weather View 32 v60,2013-01-08 18:00:00,
2013-01-08 13:20:00,49.1,25.2,27.53,WNW,295,7.0,18.0,39,0.00,,,-99.99,Weather View 32 v60,2013-01-08 18:20:00,
2013-01-08 13:40:00,50.5,24.5,27.53,WSW,255,8.0,17.0,36,0.00,,,-99.99,Weather View 32 v60,2013-01-08 18:40:00,
2013-01-08 14:00:00,48.7,25.4,27.53,WNW,290,5.0,14.0,40,0.00,,,-99.99,Weather View 32 v60,2013-01-08 19:00:00,
2013-01-08 14:40:00,51.7,24.9,27.54,NW,304,5.0,13.0,35,0.00,,,-99.99,Weather View 32 v60,2013-01-08 19:40:00,
2013-01-08 15:00:00,49.2,25.3,27.54,WNW,300,3.0,10.0,39,0.00,,,-99.99,Weather View 32 v60,2013-01-08 20:00:00,
2013-01-08 15:40:00,50.2,26.2,27.55,WNW,293,0.0,8.0,39,0.00,,,-99.99,Weather View 32 v60,2013-01-08 20:40:00,
2013-01-08 16:00:00,42.6,25.2,27.55,NW,308,0.0,7.0,50,0.00,,,-99.99,Weather View 32 v60,2013-01-08 21:00:00,
2013-01-08 16:40:00,36.5,23.9,27.55,NW,308,0.0,4.0,60,0.00,,,-99.99,Weather View 32 v60,2013-01-08 21:40:00,
2013-01-08 17:00:00,34.3,23.8,27.55,NNW,338,0.0,3.0,65,0.00,,,-99.99,Weather View 32 v60,2013-01-08 22:00:00,
2013-01-08 17:40:00,31.0,23.4,27.55,North,353,0.0,3.0,73,0.00,,,-99.99,Weather View 32 v60,2013-01-08 22:40:00,
2013-01-08 18:00:00,29.7,23.1,27.55,North,353,0.0,2.0,76,0.00,,,-99.99,Weather View 32 v60,2013-01-08 23:00:00,
2013-01-08 18:40:00,28.5,22.5,27.54,NNE,29,0.0,2.0,78,0.00,,,-99.99,Weather View 32 v60,2013-01-08 23:40:00,
2013-01-08 19:00:00,27.7,22.0,27.54,NNE,30,0.0,2.0,79,0.00,,,-99.99,Weather View 32 v60,2013-01-09 00:00:00,
2013-01-08 19:40:00,26.7,21.1,27.56,NE,44,1.0,3.0,79,0.00,,,-99.99,Weather View 32 v60,2013-01-09 00:40:00,
2013-01-08 20:00:00,25.3,20.3,27.56,ENE,58,2.0,3.0,81,0.00,,,-99.99,Weather View 32 v60,2013-01-09 01:00:00,
2013-01-08 20:20:00,24.8,20.4,27.55,ESE,114,0.0,3.0,83,0.00,,,-99.99,Weather View 32 v60,2013-01-09 01:20:00,
2013-01-08 20:40:00,24.8,20.4,27.55,ESE,114,0.0,3.0,83,0.00,,,-99.99,Weather View 32 v60,2013-01-09 01:40:00,
2013-01-08 21:00:00,24.8,20.7,27.55,ESE,114,0.0,3.0,84,0.00,,,-99.99,Weather View 32 v60,2013-01-09 02:00:00,
2013-01-08 21:40:00,25.1,20.4,27.54,SE,129,1.0,4.0,82,0.00,,,-99.99,Weather View 32 v60,2013-01-09 02:40:00,
2013-01-08 22:00:00,25.0,19.4,27.54,North,6,0.0,4.0,79,0.00,,,-99.99,Weather View 32 v60,2013-01-09 03:00:00,
2013-01-08 22:40:00,26.6,21.0,27.54,ESE,108,0.0,4.0,79,0.00,,,-99.99,Weather View 32 v60,2013-01-09 03:40:00,
2013-01-08 23:00:00,25.7,20.4,27.54,SE,135,2.0,4.0,80,0.00,,,-99.99,Weather View 32 v60,2013-01-09 04:00:00,
2013-01-08 23:40:00,25.9,20.0,27.53,ESE,122,0.0,4.0,78,0.00,,,-99.99,Weather View 32 v60,2013-01-09 04:40:00,